TimeMDT,TemperatureF,Dew PointF,Humidity,Sea Level PressureIn,VisibilityMPH,Wind Direction,Wind SpeedMPH,Gust SpeedMPH,PrecipitationIn,Events,Conditions,WindDirDegrees,DateUTC
12:49 AM,35.6,33.8,93,29.76,10.0,West,6.9,-,0.02,Rain,Light Rain,280,2013-09-26 06:49:00
12:51 AM,36.0,34.0,93,29.77,10.0,West,6.9,-,0.03,Rain,Light Rain,280,2013-09-26 06:51:00
1:31 AM,35.6,33.8,93,29.75,10.0,West,4.6,-,0.00,Rain,Light Rain,270,2013-09-26 07:31:00
1:39 AM,35.6,33.8,93,29.75,10.0,West,6.9,-,0.00,,Overcast,280,2013-09-26 07:39:00
1:51 AM,36.0,33.1,89,29.76,10.0,West,8.1,-,0.00,,Overcast,280,2013-09-26 07:51:00
2:29 AM,35.6,33.8,93,29.76,10.0,WNW,6.9,-,N/A,,Overcast,290,2013-09-26 08:29:00
2:51 AM,36.0,33.1,89,29.76,10.0,WNW,5.8,-,N/A,,Mostly Cloudy,290,2013-09-26 08:51:00
3:51 AM,36.0,33.1,89,29.76,10.0,WNW,9.2,-,N/A,,Overcast,290,2013-09-26 09:51:00
4:51 AM,36.0,33.1,89,29.76,10.0,West,9.2,-,N/A,,Overcast,280,2013-09-26 10:51:00
5:51 AM,37.0,33.1,86,29.77,10.0,NW,6.9,-,N/A,,Mostly Cloudy,310,2013-09-26 11:51:00
6:51 AM,37.9,33.1,83,29.77,10.0,NW,8.1,-,N/A,,Clear,310,2013-09-26 12:51:00
7:51 AM,37.9,32.0,79,29.79,10.0,NW,6.9,-,N/A,,Partly Cloudy,310,2013-09-26 13:51:00
8:51 AM,39.9,32.0,73,29.79,10.0,North,12.7,21.9,N/A,,Mostly Cloudy,360,2013-09-26 14:51:00
9:51 AM,41.0,32.0,70,29.81,10.0,North,15.0,24.2,N/A,,Scattered Clouds,350,2013-09-26 15:51:00
10:51 AM,44.1,30.0,58,29.81,10.0,North,9.2,18.4,N/A,,Overcast,360,2013-09-26 16:51:00
11:51 AM,45.0,30.0,56,29.83,10.0,North,9.2,-,N/A,,Overcast,350,2013-09-26 17:51:00
12:51 PM,45.0,30.0,56,29.84,10.0,North,11.5,-,N/A,,Overcast,350,2013-09-26 18:51:00
1:51 PM,46.0,30.0,54,29.85,10.0,North,11.5,18.4,N/A,,Overcast,350,2013-09-26 19:51:00
2:51 PM,46.0,30.0,54,29.86,10.0,NNW,12.7,23.0,N/A,,Overcast,330,2013-09-26 20:51:00
3:51 PM,46.9,27.0,46,29.86,10.0,NNE,13.8,19.6,N/A,,Mostly Cloudy,20,2013-09-26 21:51:00
4:51 PM,48.9,27.0,43,29.87,10.0,North,9.2,-,N/A,,Mostly Cloudy,10,2013-09-26 22:51:00
5:51 PM,48.0,25.0,41,29.90,10.0,NNE,11.5,-,N/A,,Mostly Cloudy,20,2013-09-26 23:51:00
6:51 PM,45.0,30.9,58,29.92,10.0,North,9.2,18.4,N/A,,Scattered Clouds,350,2013-09-27 00:51:00
7:51 PM,42.1,30.0,62,29.96,10.0,North,9.2,-,N/A,,Clear,350,2013-09-27 01:51:00
8:51 PM,42.1,30.0,62,29.98,10.0,NNW,9.2,-,N/A,,Clear,340,2013-09-27 02:51:00
9:51 PM,41.0,28.9,62,30.00,10.0,North,8.1,-,N/A,,Clear,360,2013-09-27 03:51:00
10:51 PM,39.9,30.0,68,30.00,10.0,North,8.1,-,N/A,,Clear,360,2013-09-27 04:51:00
11:51 PM,37.9,30.0,73,30.00,10.0,NNW,3.5,-,N/A,,Clear,340,2013-09-27 05:51:00